Location: Banksville Park
(38.5557°N, 75.1182°W)
Time: 02:54:17
(UTC+00:00)

BREEZE M DEB (TANK) - Pass Details

Date: 19 September 2020
Orbit: 299 x 11871 km, 49.5° (Epoch: 19 October)

Event Time Altitude Azimuth Distance (km) Brightness Sun altitude
Rises 09:09:39 0° 302° (WNW) 8,533 8.0 -19.3°
Reaches altitude 10° 09:17:40 10° 304° (WNW) 5,657 7.1 -17.8°
Maximum altitude 09:29:48 82° 32° (NNE) 949 3.5 -15.5°
Drops below altitude 10° 09:33:29 10° 121° (ESE) 1,827 5.6 -14.8°
Sets 09:34:51 0° 122° (ESE) 2,448 6.3 -14.6°
